sat.trackr.live / text

‹ back to catalog

STARLINK-30424

NORAD 57857 · 2023-141T

PAYLOAD ACTIVE UNKNOWN

§ Identity

Operator
Country
US
Launch date
2023-09-12
Launch site
AFWTR
Launch vehicle
Mass (kg)
RCS (m²)

Purposes: comms

External: N2YO · Heavens-Above · Gunter

§ Orbital elements

Epoch: 2026-09-20T05:05:56.183712Z

Period
94.01 min
Inclination
53.1596°
Eccentricity
0.0001166
Mean motion
15.31702228 rev/d
Perigee alt
469.9 km
Apogee alt
471.5 km
Semi-major
6,848.9 km
B*
3.1257e-5
RAAN
73.6745°
Arg perigee
95.5201°
Mean anomaly
264.5933°
Rev number
17,048

§ Raw data

STARLINK-304241 57857U 23141T   26263.21245583  .00000605  00000+0  31257-4 0  99942 57857  53.1596  73.6745 0001166  95.5201 264.5933 15.31702228170484

JSON: /api/v1/satellites/57857 · /tle

For live sub-satellite position, see the globe view (requires WebGL).

§ Visibility from observer

Set your observer location to see the next 7 days of passes ≥ 10°. The values pass through the URL so the page stays shareable.

No JS? Fill the form by hand. The geolocation button needs JavaScript.